Flag for U.S.A. Weather past 2 weeks in Garland, Texas, U.S.A.

Now
95 °F

Scattered clouds.


Feels Like: 98 °F
Forecast: 76 / 95 °F
Wind: 12 mph from South

Location: Mesquite Metro Airport

Current Time: Sep 1, 2014 at 4:40:57 PM

Latest Report: Sep 1, 2014 at 3:50 PM


Visibility: 10 mi

Pressure: 29.88 "Hg

Humidity: 39%

Dew point: 66 °F

Location of GarlandLocation

Historic Weather in Garland — Graph

°F

Garland temperature yesterday

Maximum temperature yesterday: 93 °F (at 3:55 PM)
Minimum temperature yesterday: 73 °F (at 6:50 AM)
Average temperature yesterday: 80 °F

Past Weeks' High & Low Weather Summary

 TemperatureHumidityPressure
High100 °F (Aug 22, 3:50 PM)100% (Aug 30, 7:47 AM)30.08 "Hg (Aug 30, 7:47 AM)
Low70 °F (Aug 28, 4:55 AM)22% (Aug 22, 4:50 PM)29.83 "Hg (Aug 28, 6:50 PM)
Average81 °F67%29.95 "Hg
* Reported Aug 17 2:50 PM — Sep 1 2:50 PM, Garland, Weather by CustomWeather, © 2014

Note: Actual official high and low records may vary slightly from our data, if they occured in-between our weather recording intervals... More about our weather records

Advertising

Garland weather history for previous 24 hours

 ConditionsComfort  
Time TempWeatherWind HumidityBarometerVisibility
2:50 PM
Sep 1
95 °FScattered clouds.15 mph39%29.90 "Hg10 mi
1:47 PM93 °FPartly sunny.13 mph41%29.92 "Hg10 mi
12:47 PM91 °FPartly sunny.14 mph46%29.94 "Hg10 mi
11:55 AM90 °FPartly sunny.15 mph52%29.94 "Hg10 mi
10:55 AM88 °FPartly sunny.16 mph59%29.94 "Hg7 mi
9:50 AM82 °FPartly sunny.N/A70%29.94 "Hg7 mi
8:50 AM79 °FPartly sunny.10 mph84%29.94 "Hg7 mi
7:59 AM79 °FPassing clouds.8 mph84%29.94 "Hg7 mi
6:50 AM75 °FPassing clouds.10 mph89%29.91 "Hg7 mi
5:35 AM76 °FOvercast.13 mph87%29.92 "Hg10 mi
5:15 AM75 °FPassing clouds.10 mph87%29.91 "Hg10 mi
4:55 AM75 °FClear.13 mph87%29.91 "Hg10 mi
4:35 AM76 °FClear.10 mph86%29.91 "Hg10 mi
4:15 AM76 °FClear.13 mph84%29.92 "Hg10 mi
3:55 AM76 °FClear.12 mph83%29.92 "Hg10 mi
3:35 AM76 °FClear.12 mph82%29.92 "Hg10 mi
3:15 AM77 °FClear.13 mph80%29.91 "Hg10 mi
2:55 AM77 °FClear.12 mph79%29.91 "Hg10 mi
2:35 AM77 °FClear.13 mph77%29.92 "Hg10 mi
2:15 AM78 °FClear.12 mph75%29.91 "Hg10 mi
1:55 AM78 °FClear.12 mph74%29.92 "Hg10 mi
1:35 AM78 °FClear.14 mph74%29.92 "Hg10 mi
1:15 AM78 °FClear.10 mph74%29.91 "Hg10 mi
12:55 AM78 °FClear.13 mph76%29.91 "Hg10 mi
12:15 AM79 °FClear.10 mph79%29.91 "Hg10 mi
11:55 PM
Aug 31
79 °FClear.12 mph77%29.91 "Hg10 mi
11:15 PM80 °FClear.9 mph76%29.91 "Hg10 mi
10:55 PM81 °FClear.13 mph75%29.91 "Hg10 mi
10:35 PM81 °FClear.12 mph74%29.90 "Hg10 mi
10:15 PM82 °FClear.9 mph73%29.91 "Hg10 mi
9:55 PM82 °FClear.10 mph71%29.90 "Hg10 mi
7:50 PM88 °FSunny.13 mph55%29.88 "Hg10 mi
5:50 PM93 °FScattered clouds.10 mph39%29.89 "Hg10 mi
Weather by CustomWeather, © 2014

See weather overviewHow to use our weather pages